Weather History for Alma, GA

Change the Weather History Date:

Tuesday, March 5, 2013

  Actual Average Record
Temperature  
Mean Temperature 58 °F 58 °F  
Max Temperature 74 °F 70 °F 87 °F (1989)
Min Temperature 42 °F 46 °F 24 °F (2002)
Degree Days  
Heating Degree Days 7 8  
Month to date heating degree days 97 41  
Since 1 July heating degree days 1256 1442  
Cooling Degree Days 0 1  
Month to date cooling degree days 0 5  
Year to date cooling degree days 27 21  
Growing Degree Days 8 (Base 50)    
Moisture  
Dew Point 48 °F    
Average Humidity 63    
Maximum Humidity 77    
Minimum Humidity 49    
Precipitation  
Precipitation T in 0.17 in 4.75 in (1959)
Month to date precipitation T 0.83  
Year to date precipitation 10.11 8.89  
Snow  
Snow 0.00 in 0.00 in 0.00 in ()
Month to date snowfall T 0.0  
Since 1 July snowfall T 0.1  
Snow Depth 0.00 in    
Sea Level Pressure  
Sea Level Pressure 29.99 in    
Wind  
Wind Speed 10 mph (SW)    
Max Wind Speed 28 mph    
Max Gust Speed 35 mph    
Visibility 10 miles    
Events Rain    
T = Trace of Precipitation, MM = Missing Value Source: NWS Daily Summary

Daily Weather History Graph

Daily Weather History Graph

Search for Another Location

Airport:

Trip Planner

Search our weather history database for the weather conditions in past years. The results will help you decide how hot, cold, wet, or windy it might be!

Date:

Astronomy

Mar. 05, 2013 Rise Set
Actual Time 6:52 AM EST 6:31 PM EST
Civil Twilight 6:27 AM EST 6:55 PM EST
Nautical Twilight 5:59 AM EST 7:23 PM EST
Astronomical Twilight 5:31 AM EST 7:51 PM EST
Moon 1:46 AM EST (3/5) 12:25 PM EST (3/5)
Length of Visible Light 12h 27m
Length of Day
11h 39m
Last Quarter, 41% of the Moon is Illuminated
Mar 5
Last Quarter
Mar 11
New
Mar 19
First Quarter
Mar 27
Full
Apr 3
Last Quarter

Hourly Weather History & Observations

Time (EST) Temp. Windchill Dew Point Humidity Pressure Visibility Wind Dir Wind Speed Gust Speed Precip Events Conditions
12:53 AM 50.0 °F - 36.0 °F 59% 30.11 in 10.0 mi WSW 4.6 mph - N/A   Clear
2:53 AM 48.0 °F - 35.1 °F 61% 30.10 in 10.0 mi Calm Calm - N/A   Clear
3:53 AM 45.0 °F - 37.9 °F 76% 30.11 in 10.0 mi Calm Calm - N/A   Clear
4:53 AM 44.1 °F - 37.9 °F 79% 30.13 in 10.0 mi Calm Calm - N/A   Clear
5:53 AM 44.1 °F - 37.0 °F 76% 30.12 in 10.0 mi Calm Calm - N/A   Clear
6:53 AM 45.0 °F 43.5 °F 37.9 °F 76% 30.12 in 10.0 mi SSE 3.5 mph - N/A   Partly Cloudy
8:53 AM 52.0 °F - 42.1 °F 69% 30.12 in 10.0 mi SSW 4.6 mph - N/A   Clear
9:53 AM 57.9 °F - 43.0 °F 58% 30.11 in 10.0 mi SSW 8.1 mph - N/A   Mostly Cloudy
10:53 AM 63.0 °F - 45.0 °F 52% 30.08 in 10.0 mi SSW 10.4 mph - N/A   Mostly Cloudy
11:53 AM 64.9 °F - 46.0 °F 50% 30.04 in 10.0 mi South 10.4 mph - N/A   Clear
12:53 PM 68.0 °F - 48.0 °F 49% 30.04 in 10.0 mi SSW 12.7 mph - N/A   Mostly Cloudy
1:53 PM 70.0 °F - 51.1 °F 51% 29.98 in 10.0 mi SW 15.0 mph 21.9 mph N/A   Overcast
2:53 PM 73.0 °F - 53.1 °F 49% 29.95 in 10.0 mi SW 17.3 mph 25.3 mph N/A   Scattered Clouds
3:53 PM 71.1 °F - 53.1 °F 53% 29.91 in 10.0 mi SSW 21.9 mph 29.9 mph N/A   Overcast
4:53 PM 71.1 °F - 54.0 °F 55% 29.88 in 10.0 mi SW 19.6 mph 27.6 mph N/A   Mostly Cloudy
5:53 PM 69.1 °F - 54.0 °F 58% 29.88 in 10.0 mi SW 17.3 mph 31.1 mph N/A   Partly Cloudy
6:53 PM 66.0 °F - 54.0 °F 65% 29.85 in 10.0 mi SSW 12.7 mph 24.2 mph N/A   Mostly Cloudy
7:53 PM 66.0 °F - 55.0 °F 68% 29.84 in 10.0 mi SSW 16.1 mph 29.9 mph N/A   Mostly Cloudy
8:53 PM 66.0 °F - 57.0 °F 73% 29.84 in 10.0 mi SW 17.3 mph 31.1 mph N/A   Overcast
9:53 PM 64.0 °F - 59.0 °F 84% 29.86 in 8.0 mi WSW 17.3 mph 31.1 mph 0.00 in Rain Light Rain
10:01 PM 64.4 °F - 59.0 °F 83% 29.87 in 10.0 mi WSW 12.7 mph 25.3 mph 0.00 in   Overcast
10:53 PM 62.1 °F - 54.0 °F 75% 29.87 in 10.0 mi West 11.5 mph 26.5 mph 0.00 in   Overcast
11:53 PM 57.0 °F - 46.0 °F 67% 29.90 in 10.0 mi WNW 15.0 mph 24.2 mph N/A   Clear